QPF
0.00 0.00 0.00 0.00 0.00 0.00 0.00 0.00 0.00 0.00 0.00 0.00 0.00 0.00 0.00 0.00 0.00 0.00 0.00 0.00 0.00 0.00 0.00 0.00 0.00 0.00 0.00 0.00 0.00 0.00 0.00 0.00 0.00 0.00 0.00 0.00 0.00 0.00 0.00 0.00 0.00 0.00 0.00 0.00
0.00 0.00 0.00 0.00 0.00 0.00 0.00 0.00 0.00 0.00 0.00 0.00 0.00 0.00 0.00 0.00 0.00 0.00 0.00 0.00 0.00 0.00 0.00 0.00 0.00 0.00 0.00 0.00 0.00 0.00 0.00 0.00 0.00 0.00 0.00 0.00 0.00 0.00 0.00 0.00 0.00 0.00 0.00 0.00
0.00 0.00 0.00 0.00 0.00 0.00 0.00 0.00 0.00 0.00 0.00 0.00 0.00 0.00 0.00 0.00 0.00 0.00 0.00 0.00 0.00 0.00 0.00 0.00 0.00 0.00 0.00 0.00 0.00 0.00 0.00 0.00 0.00 0.00 0.00 0.00 0.00 0.00 0.00 0.00 0.00 0.00 0.00 0.00
0.00 0.00 0.00 0.00 0.00 0.00 0.00 0.00 0.00 0.00 0.00 0.00 0.00 0.00 0.00 0.00 0.00 0.00 0.00 0.00 0.00 0.00 0.00 0.00 0.00 0.00 0.00 0.00 0.00 0.00 0.00 0.00 0.00 0.00 0.00 0.00 0.00 0.00 0.00 0.00 0.00 0.00 0.00 0.00
0.00 0.00 0.00 0.00 0.00 0.00 0.00 0.00 0.00 0.00 0.00 0.00 0.00 0.00 0.00 0.00 0.00 0.00 0.00 0.00 0.00 0.00 0.00 0.00 0.00 0.00 0.00 0.00 0.00 0.00 0.00 0.00 0.00 0.00 0.00 0.00 0.00 0.00 0.00 0.00 0.00 0.00 0.00 0.00
0.00 0.00 0.00 0.00 0.00 0.00 0.00 0.00 0.00 0.00 0.00 0.00 0.00 0.00 0.00 0.00 0.00 0.00 0.00 0.00 0.00 0.00 0.00 0.00 0.00 0.00 0.00 0.00 0.00 0.00 0.00 0.00 0.00 0.00 0.00 0.00 0.00 0.00 0.00 0.00 0.00 0.00 0.00 0.00
0.00 0.00 0.00 0.00 0.00 0.00 0.00 0.00 0.00 0.00 0.00 0.00 0.00 0.00 0.00 0.00 0.00 0.00 0.00 0.00 0.00 0.00 0.00 0.00 0.00 0.00 0.00 0.00 0.00 0.00 0.00 0.00 0.00 0.00 0.00 0.00 0.00 0.00 0.00 0.00 0.00 0.00 0.00 0.00
0.00 0.00 0.00 0.00 0.00 0.00 0.00 0.00 0.00 0.00 0.00 0.00 0.00 0.00 0.00 0.00 0.00 0.00 0.00 0.00 0.00 0.00 0.00 0.00 0.00 0.00 0.00 0.00 0.00 0.00 0.00 0.00 0.00 0.00 0.00 0.00 0.00 0.00 0.00 0.00 0.00 0.00 0.00 0.00
0.00 0.00 0.00 0.00 0.00 0.00 0.00 0.00 0.00 0.00 0.00 0.00 0.00 0.00 0.00 0.00 0.00 0.00 0.00 0.00 0.00 0.00 0.00 0.00 0.00 0.00 0.00 0.00 0.00 0.00 0.00 0.00 0.00 0.00 0.00 0.00 0.00 0.00 0.00 0.00 0.00 0.00 0.00 0.00
0.00 0.00 0.00 0.00 0.00 0.00 0.00 0.00 0.00 0.00 0.00 0.00 0.00 0.00 0.00 0.00 0.00 0.00 0.00 0.00 0.00 0.00 0.00 0.00 0.00 0.00 0.00 0.00 0.00 0.00 0.00 0.00 0.00 0.00 0.00 0.00 0.00 0.00 0.00 0.00 0.00 0.00 0.00 0.00
0.00 0.00 0.00 0.00 0.00 0.00 0.00 0.00 0.00 0.00 0.00 0.00 0.00 0.00 0.00 0.00 0.00 0.00 0.00 0.00 0.00 0.00 0.00 0.00 0.00 0.00 0.00 0.00 0.00 0.00 0.00 0.00 0.00 0.00 0.00 0.00 0.00 0.00 0.00 0.00 0.00 0.00 0.00 0.00
0.00 0.00 0.00 0.00 0.00 0.00 0.00 0.00 0.00 0.00 0.00 0.00 0.00 0.00 0.00 0.00 0.00 0.00 0.00 0.00 0.00 0.00 0.00 0.00 0.00 0.00 0.00 0.00 0.00 0.00 0.00 0.00 0.00 0.00 0.00 0.00 0.00 0.00 0.00 0.00 0.00 0.00 0.00 0.00
0.00 0.00 0.00 0.00 0.00 0.00 0.00 0.00 0.00 0.00 0.00 0.00 0.00 0.00 0.00 0.00 0.00 0.00 0.00 0.00 0.00 0.00 0.00 0.00 0.00 0.00 0.00 0.00 0.00 0.00 0.00 0.00 0.00 0.00 0.00 0.00 0.00 0.00 0.00 0.00 0.00 0.00 0.00 0.00
0.00 0.00 0.00 0.00 0.00 0.00 0.00 0.00 0.00 0.00 0.00 0.00 0.00 0.00 0.00 0.00 0.00 0.00 0.00 0.00 0.00 0.00 0.00 0.00 0.00 0.00 0.00 0.00 0.00 0.00 0.00 0.00 0.00 0.00 0.00 0.00 0.00 0.00 0.00 0.00 0.00 0.00 0.00 0.00
0.00 0.00 0.00 0.00 0.00 0.00 0.00 0.00 0.00 0.00 0.00 0.00 0.00 0.00 0.00 0.00 0.00 0.00 0.00 0.00 0.00 0.00 0.00 0.00 0.00 0.00 0.00 0.00 0.00 0.00 0.00 0.00 0.00 0.00 0.00 0.00 0.00 0.00 0.00 0.00 0.00 0.00 0.00 0.00
0.00 0.00 0.00 0.00 0.00 0.00 0.00 0.00 0.00 0.00 0.00 0.00 0.00 0.00 0.00 0.00 0.00 0.00 0.00 0.00 0.00 0.00 0.00 0.00 0.00 0.00 0.00 0.00 0.00 0.00 0.00 0.00 0.00 0.00 0.00 0.00 0.00 0.00 0.00 0.00 0.00 0.00 0.00 0.00
0.00 0.00 0.00 0.00 0.00 0.00 0.00 0.00 0.00 0.00 0.00 0.00 0.00 0.00 0.00 0.00 0.00 0.00 0.00 0.00 0.00 0.00 0.00 0.00 0.00 0.00 0.00 0.00 0.00 0.00 0.00 0.00 0.00 0.00 0.00 0.00 0.00 0.00 0.00 0.00 0.00 0.00 0.00 0.00
0.00 0.00 0.00 0.00 0.00 0.00 0.00 0.00 0.00 0.00 0.00 0.00 0.00 0.00 0.00 0.00 0.00 0.00 0.00 0.00 0.00 0.00 0.00 0.00 0.00 0.00 0.00 0.00 0.00 0.00 0.00 0.00 0.00 0.00 0.00 0.00 0.00 0.00 0.00 0.00 0.00 0.00 0.00 0.00
0.00 0.00 0.00 0.00 0.00 0.00 0.00 0.00 0.00 0.00 0.00 0.00 0.00 0.00 0.00 0.00 0.00 0.00 0.00 0.00 0.00 0.00 0.00 0.00 0.00 0.00 0.00 0.00 0.00 0.00 0.00 0.00 0.00 0.00 0.00 0.00 0.00 0.00 0.00 0.00 0.00 0.00 0.00 0.00
0.00 0.00 0.00 0.00 0.00 0.00 0.00 0.00 0.00 0.00 0.00 0.00 0.00 0.00 0.00 0.00 0.00 0.00 0.00 0.00 0.00 0.00 0.00 0.00 0.00 0.00 0.00 0.00 0.00 0.00 0.00 0.00 0.00 0.00 0.00 0.00 0.00 0.00 0.00 0.00 0.00 0.00 0.00 0.00
0.00 0.00 0.00 0.00 0.00 0.00 0.00 0.00 0.00 0.00 0.00 0.00 0.00 0.00 0.00 0.00 0.00 0.00 0.00 0.00 0.00 0.00 0.00 0.00 0.00 0.00 0.00 0.00 0.00 0.00 0.00 0.00 0.00 0.00 0.00 0.00 0.00 0.00 0.00 0.00 0.00 0.00 0.00 0.00
0.00 0.00 0.00 0.00 0.00 0.00 0.00 0.00 0.00 0.00 0.00 0.00 0.00 0.00 0.00 0.00 0.00 0.00 0.00 0.00 0.00 0.00 0.00 0.00 0.00 0.00 0.00 0.00 0.00 0.00 0.00 0.00 0.00 0.00 0.00 0.00 0.00 0.00 0.00 0.00 0.00 0.00 0.00 0.00
0.00 0.00 0.00 0.00 0.00 0.00 0.00 0.00 0.00 0.00 0.00 0.00 0.00 0.00 0.00 0.00 0.00 0.00 0.00 0.00 0.00 0.00 0.00 0.00 0.00 0.00 0.00 0.00 0.00 0.00 0.00 0.00 0.00 0.00 0.00 0.00 0.00 0.00 0.00 0.00 0.00 0.00 0.00 0.01
0.00 0.00 0.00 0.00 0.00 0.00 0.00 0.00 0.00 0.00 0.00 0.00 0.00 0.00 0.00 0.00 0.00 0.00 0.00 0.00 0.00 0.00 0.00 0.00 0.00 0.00 0.00 0.00 0.00 0.00 0.00 0.00 0.00 0.00 0.00 0.00 0.00 0.00 0.00 0.00 0.00 0.00 0.00 0.01
0.00 0.00 0.00 0.00 0.00 0.00 0.00 0.00 0.00 0.00 0.00 0.00 0.00 0.00 0.00 0.00 0.00 0.00 0.00 0.00 0.00 0.00 0.00 0.00 0.00 0.00 0.00 0.00 0.00 0.00 0.00 0.00 0.00 0.00 0.00 0.00 0.00 0.00 0.00 0.00 0.00 0.00 0.00 0.00
0.00 0.00 0.00 0.00 0.00 0.00 0.00 0.00 0.00 0.00 0.00 0.00 0.00 0.00 0.00 0.00 0.00 0.00 0.00 0.00 0.00 0.00 0.00 0.00 0.00 0.00 0.00 0.00 0.00 0.00 0.00 0.00 0.00 0.00 0.00 0.00 0.00 0.00 0.00 0.00 0.00 0.00 0.00 0.00
MSLP
1019.38 1019.52 1019.61 1019.67 1019.72 1019.76 1019.80 1019.77 1019.63 1019.33 1018.81 1018.06 1017.09 1015.96 1014.75 1013.57 1012.52 1011.69 1011.14 1010.89 1010.94 1011.24 1011.74 1012.37 1013.08 1013.82 1014.58 1015.33 1016.07 1016.81 1017.53 1018.24 1018.91 1019.55 1020.14 1020.69 1021.19 1021.67 1022.13 1022.60 1023.07 1023.55 1024.01 1024.46
1019.50 1019.57 1019.59 1019.59 1019.60 1019.63 1019.66 1019.64 1019.51 1019.21 1018.69 1017.92 1016.92 1015.75 1014.47 1013.23 1012.11 1011.22 1010.63 1010.34 1010.35 1010.62 1011.08 1011.67 1012.32 1013.00 1013.68 1014.35 1015.02 1015.70 1016.38 1017.06 1017.72 1018.36 1018.95 1019.50 1020.01 1020.48 1020.94 1021.40 1021.87 1022.35 1022.84 1023.33
1019.56 1019.57 1019.55 1019.52 1019.52 1019.56 1019.61 1019.62 1019.51 1019.23 1018.70 1017.92 1016.89 1015.67 1014.36 1013.07 1011.92 1011.00 1010.37 1010.06 1010.03 1010.26 1010.66 1011.17 1011.73 1012.30 1012.86 1013.43 1014.00 1014.61 1015.23 1015.88 1016.53 1017.17 1017.76 1018.31 1018.80 1019.25 1019.68 1020.10 1020.54 1021.01 1021.51 1022.02
1019.57 1019.55 1019.51 1019.49 1019.52 1019.59 1019.67 1019.72 1019.64 1019.36 1018.83 1018.03 1016.96 1015.71 1014.36 1013.04 1011.87 1010.93 1010.29 1009.95 1009.90 1010.07 1010.40 1010.81 1011.25 1011.68 1012.12 1012.55 1013.02 1013.54 1014.11 1014.72 1015.36 1015.99 1016.58 1017.11 1017.58 1017.99 1018.36 1018.73 1019.12 1019.55 1020.03 1020.55
1019.55 1019.52 1019.50 1019.51 1019.59 1019.71 1019.85 1019.93 1019.86 1019.58 1019.03 1018.19 1017.09 1015.79 1014.41 1013.07 1011.88 1010.94 1010.30 1009.95 1009.87 1009.99 1010.23 1010.53 1010.84 1011.14 1011.43 1011.73 1012.08 1012.51 1013.01 1013.59 1014.21 1014.83 1015.41 1015.93 1016.36 1016.72 1017.03 1017.33 1017.65 1018.04 1018.49 1019.01
1019.52 1019.50 1019.52 1019.59 1019.72 1019.91 1020.09 1020.19 1020.13 1019.83 1019.24 1018.35 1017.19 1015.86 1014.45 1013.09 1011.90 1010.97 1010.33 1009.98 1009.87 1009.94 1010.11 1010.31 1010.49 1010.64 1010.79 1010.95 1011.19 1011.52 1011.97 1012.51 1013.10 1013.71 1014.27 1014.77 1015.16 1015.47 1015.71 1015.95 1016.21 1016.54 1016.96 1017.47
1019.49 1019.50 1019.57 1019.69 1019.89 1020.12 1020.33 1020.44 1020.36 1020.02 1019.38 1018.43 1017.23 1015.85 1014.42 1013.07 1011.89 1010.98 1010.36 1010.02 1009.90 1009.93 1010.02 1010.12 1010.18 1010.20 1010.21 1010.25 1010.37 1010.62 1010.99 1011.49 1012.06 1012.64 1013.19 1013.66 1014.02 1014.28 1014.48 1014.65 1014.85 1015.14 1015.52 1016.02
1019.47 1019.52 1019.62 1019.79 1020.02 1020.28 1020.49 1020.59 1020.47 1020.08 1019.39 1018.39 1017.15 1015.75 1014.32 1012.99 1011.85 1010.98 1010.39 1010.07 1009.94 1009.94 1009.97 1009.98 1009.93 1009.83 1009.71 1009.64 1009.66 1009.81 1010.12 1010.57 1011.10 1011.66 1012.19 1012.64 1012.97 1013.20 1013.36 1013.49 1013.66 1013.90 1014.26 1014.75
1019.47 1019.53 1019.65 1019.84 1020.08 1020.33 1020.52 1020.58 1020.41 1019.97 1019.22 1018.19 1016.94 1015.55 1014.16 1012.88 1011.81 1011.00 1010.46 1010.16 1010.04 1010.01 1009.98 1009.91 1009.77 1009.56 1009.34 1009.15 1009.08 1009.15 1009.39 1009.77 1010.27 1010.79 1011.30 1011.73 1012.05 1012.26 1012.39 1012.50 1012.64 1012.86 1013.20 1013.66
1019.47 1019.53 1019.65 1019.82 1020.03 1020.24 1020.37 1020.36 1020.14 1019.64 1018.87 1017.83 1016.61 1015.28 1013.97 1012.78 1011.80 1011.07 1010.59 1010.33 1010.21 1010.16 1010.09 1009.94 1009.71 1009.41 1009.09 1008.82 1008.65 1008.64 1008.80 1009.13 1009.57 1010.06 1010.53 1010.94 1011.24 1011.44 1011.56 1011.66 1011.79 1011.99 1012.31 1012.75
1019.47 1019.51 1019.59 1019.71 1019.86 1019.99 1020.04 1019.95 1019.66 1019.12 1018.34 1017.34 1016.19 1014.96 1013.77 1012.71 1011.85 1011.22 1010.82 1010.60 1010.49 1010.41 1010.29 1010.08 1009.77 1009.39 1008.99 1008.63 1008.38 1008.30 1008.39 1008.65 1009.02 1009.46 1009.89 1010.26 1010.54 1010.73 1010.84 1010.93 1011.05 1011.25 1011.54 1011.95
1019.46 1019.46 1019.49 1019.53 1019.58 1019.61 1019.55 1019.38 1019.02 1018.46 1017.70 1016.77 1015.72 1014.64 1013.60 1012.70 1011.98 1011.46 1011.14 1010.95 1010.84 1010.73 1010.56 1010.29 1009.92 1009.47 1009.00 1008.58 1008.27 1008.11 1008.12 1008.30 1008.60 1008.97 1009.34 1009.66 1009.91 1010.07 1010.17 1010.25 1010.35 1010.53 1010.79 1011.16
1019.44 1019.40 1019.35 1019.31 1019.24 1019.15 1018.98 1018.71 1018.30 1017.73 1017.01 1016.17 1015.25 1014.33 1013.47 1012.74 1012.16 1011.76 1011.51 1011.35 1011.23 1011.10 1010.88 1010.55 1010.12 1009.63 1009.11 1008.63 1008.26 1008.04 1007.98 1008.07 1008.28 1008.56 1008.85 1009.10 1009.29 1009.41 1009.48 1009.53 1009.62 1009.76 1009.99 1010.31
1019.42 1019.33 1019.21 1019.07 1018.89 1018.67 1018.39 1018.02 1017.56 1016.99 1016.32 1015.58 1014.81 1014.06 1013.37 1012.80 1012.37 1012.07 1011.87 1011.74 1011.61 1011.43 1011.17 1010.80 1010.33 1009.80 1009.25 1008.74 1008.33 1008.05 1007.92 1007.92 1008.03 1008.20 1008.38 1008.54 1008.65 1008.70 1008.72 1008.74 1008.78 1008.89 1009.07 1009.35
1019.40 1019.28 1019.09 1018.85 1018.56 1018.22 1017.83 1017.38 1016.86 1016.29 1015.67 1015.03 1014.40 1013.81 1013.29 1012.87 1012.55 1012.33 1012.18 1012.05 1011.90 1011.69 1011.39 1010.98 1010.49 1009.94 1009.38 1008.86 1008.42 1008.10 1007.90 1007.81 1007.81 1007.86 1007.92 1007.96 1007.96 1007.93 1007.88 1007.84 1007.84 1007.90 1008.04 1008.28
1019.39 1019.23 1018.99 1018.67 1018.28 1017.83 1017.34 1016.81 1016.25 1015.67 1015.10 1014.55 1014.03 1013.57 1013.19 1012.89 1012.67 1012.51 1012.37 1012.24 1012.06 1011.82 1011.49 1011.07 1010.57 1010.03 1009.48 1008.96 1008.52 1008.16 1007.90 1007.73 1007.61 1007.53 1007.45 1007.36 1007.25 1007.11 1006.98 1006.87 1006.81 1006.83 1006.93 1007.12
1019.37 1019.19 1018.89 1018.50 1018.03 1017.49 1016.91 1016.31 1015.72 1015.14 1014.60 1014.11 1013.69 1013.34 1013.06 1012.85 1012.69 1012.56 1012.43 1012.28 1012.08 1011.81 1011.47 1011.04 1010.56 1010.04 1009.52 1009.03 1008.59 1008.21 1007.90 1007.64 1007.41 1007.20 1006.99 1006.76 1006.52 1006.28 1006.06 1005.88 1005.77 1005.74 1005.81 1005.97
1019.31 1019.10 1018.77 1018.32 1017.78 1017.17 1016.52 1015.87 1015.24 1014.67 1014.15 1013.72 1013.37 1013.09 1012.88 1012.72 1012.60 1012.49 1012.36 1012.19 1011.97 1011.68 1011.32 1010.91 1010.46 1009.98 1009.51 1009.05 1008.63 1008.24 1007.88 1007.55 1007.23 1006.89 1006.55 1006.19 1005.84 1005.49 1005.19 1004.95 1004.79 1004.72 1004.76 1004.90
1019.19 1018.94 1018.56 1018.06 1017.46 1016.80 1016.11 1015.43 1014.79 1014.22 1013.74 1013.35 1013.04 1012.82 1012.66 1012.54 1012.44 1012.32 1012.18 1011.99 1011.75 1011.46 1011.11 1010.71 1010.30 1009.87 1009.44 1009.03 1008.63 1008.23 1007.85 1007.45 1007.04 1006.61 1006.15 1005.69 1005.23 1004.80 1004.43 1004.13 1003.93 1003.83 1003.85 1003.96
1018.94 1018.65 1018.22 1017.67 1017.04 1016.35 1015.64 1014.95 1014.32 1013.78 1013.33 1012.99 1012.73 1012.55 1012.43 1012.33 1012.23 1012.12 1011.96 1011.75 1011.50 1011.20 1010.85 1010.49 1010.11 1009.72 1009.34 1008.97 1008.59 1008.20 1007.79 1007.34 1006.86 1006.35 1005.81 1005.26 1004.72 1004.23 1003.80 1003.46 1003.23 1003.11 1003.11 1003.20
1018.55 1018.19 1017.71 1017.13 1016.47 1015.77 1015.08 1014.42 1013.83 1013.33 1012.94 1012.65 1012.45 1012.31 1012.22 1012.14 1012.04 1011.92 1011.74 1011.52 1011.25 1010.94 1010.61 1010.26 1009.91 1009.56 1009.22 1008.87 1008.50 1008.11 1007.68 1007.21 1006.68 1006.11 1005.51 1004.90 1004.31 1003.77 1003.31 1002.94 1002.69 1002.56 1002.53 1002.60
1018.00 1017.56 1017.02 1016.41 1015.76 1015.09 1014.43 1013.84 1013.32 1012.90 1012.58 1012.36 1012.22 1012.13 1012.07 1012.00 1011.91 1011.77 1011.58 1011.34 1011.05 1010.73 1010.40 1010.06 1009.72 1009.39 1009.06 1008.72 1008.37 1007.97 1007.53 1007.03 1006.47 1005.87 1005.23 1004.59 1003.97 1003.41 1002.93 1002.55 1002.28 1002.13 1002.08 1002.12
1017.31 1016.78 1016.20 1015.58 1014.95 1014.33 1013.75 1013.25 1012.83 1012.51 1012.29 1012.15 1012.08 1012.04 1012.01 1011.95 1011.86 1011.71 1011.50 1011.23 1010.92 1010.58 1010.23 1009.88 1009.53 1009.20 1008.87 1008.53 1008.17 1007.76 1007.31 1006.79 1006.22 1005.60 1004.95 1004.30 1003.68 1003.11 1002.62 1002.23 1001.95 1001.78 1001.70 1001.71
1016.52 1015.92 1015.31 1014.70 1014.12 1013.58 1013.11 1012.72 1012.43 1012.23 1012.11 1012.06 1012.06 1012.06 1012.06 1012.01 1011.91 1011.73 1011.49 1011.20 1010.85 1010.48 1010.10 1009.72 1009.35 1008.99 1008.64 1008.28 1007.90 1007.48 1007.01 1006.48 1005.90 1005.29 1004.64 1004.00 1003.39 1002.83 1002.34 1001.95 1001.65 1001.45 1001.33 1001.30
1015.72 1015.07 1014.45 1013.88 1013.37 1012.93 1012.58 1012.33 1012.17 1012.09 1012.08 1012.11 1012.16 1012.20 1012.21 1012.15 1012.03 1011.82 1011.54 1011.20 1010.82 1010.40 1009.97 1009.55 1009.14 1008.74 1008.35 1007.96 1007.55 1007.11 1006.63 1006.10 1005.52 1004.91 1004.29 1003.67 1003.07 1002.53 1002.05 1001.65 1001.33 1001.10 1000.95 1000.87
1014.98 1014.32 1013.72 1013.21 1012.79 1012.47 1012.25 1012.13 1012.09 1012.11 1012.19 1012.28 1012.37 1012.42 1012.42 1012.34 1012.17 1011.92 1011.60 1011.21 1010.77 1010.30 1009.82 1009.35 1008.89 1008.44 1008.01 1007.57 1007.13 1006.66 1006.16 1005.63 1005.07 1004.48 1003.88 1003.29 1002.72 1002.19 1001.72 1001.31 1000.98 1000.72 1000.53 1000.41
Thickness
5694 5693 5693 5696 5695 5692 5687 5684 5688 5696 5694 5680 5691 5706 5724 5732 5727 5727 5728 5729 5730 5731 5729 5722 5713 5703 5694 5687 5680 5673 5665 5656 5647 5640 5633 5627 5621 5613 5606 5599 5592 5584 5577 5568
5688 5689 5695 5689 5681 5677 5677 5677 5686 5695 5682 5676 5689 5702 5721 5728 5726 5726 5726 5727 5728 5728 5725 5720 5712 5703 5696 5689 5682 5674 5667 5659 5651 5645 5637 5630 5621 5614 5607 5598 5590 5583 5575 5567
5681 5688 5681 5677 5675 5673 5675 5674 5682 5680 5682 5677 5673 5706 5724 5731 5725 5721 5720 5720 5721 5719 5719 5716 5709 5702 5694 5689 5683 5676 5669 5660 5652 5643 5632 5624 5617 5612 5606 5599 5591 5583 5574 5566
5679 5681 5673 5672 5673 5671 5673 5675 5668 5664 5666 5678 5669 5679 5715 5723 5719 5721 5721 5720 5718 5716 5712 5709 5705 5699 5693 5687 5679 5673 5666 5658 5651 5640 5633 5627 5621 5618 5614 5604 5594 5583 5572 5564
5680 5674 5670 5669 5672 5667 5670 5662 5661 5659 5659 5663 5668 5664 5700 5714 5714 5715 5715 5713 5711 5708 5706 5703 5700 5696 5691 5684 5676 5668 5661 5654 5647 5639 5632 5626 5622 5619 5611 5602 5594 5583 5573 5562
5675 5671 5669 5668 5663 5660 5660 5657 5654 5651 5656 5659 5665 5662 5687 5710 5705 5703 5704 5704 5702 5701 5700 5698 5696 5692 5687 5681 5673 5665 5658 5653 5644 5637 5630 5625 5622 5616 5609 5603 5594 5583 5572 5561
5670 5668 5664 5661 5659 5656 5655 5657 5661 5661 5661 5665 5652 5651 5679 5705 5700 5692 5689 5691 5692 5694 5693 5691 5690 5687 5683 5677 5671 5663 5657 5653 5645 5637 5630 5625 5619 5612 5606 5601 5591 5579 5570 5561
5660 5666 5662 5657 5656 5655 5651 5650 5648 5643 5650 5659 5647 5652 5688 5703 5695 5686 5682 5683 5686 5687 5686 5684 5683 5681 5679 5674 5668 5662 5657 5652 5644 5636 5629 5620 5612 5604 5601 5594 5585 5576 5568 5558
5656 5658 5654 5650 5648 5648 5645 5644 5640 5637 5638 5631 5651 5661 5679 5696 5692 5685 5682 5679 5677 5677 5676 5676 5675 5674 5672 5669 5664 5659 5653 5647 5640 5632 5623 5615 5606 5598 5592 5584 5576 5569 5561 5550
5652 5649 5652 5644 5640 5636 5637 5637 5629 5628 5624 5628 5643 5648 5668 5682 5684 5678 5671 5667 5667 5667 5666 5666 5666 5665 5663 5660 5656 5652 5646 5640 5633 5624 5616 5608 5600 5592 5583 5574 5568 5561 5552 5541
5644 5642 5645 5640 5638 5643 5627 5624 5625 5627 5623 5620 5627 5646 5671 5669 5667 5658 5655 5656 5656 5654 5653 5653 5653 5653 5651 5649 5645 5640 5634 5628 5622 5614 5607 5599 5591 5582 5574 5567 5561 5552 5543 5534
5635 5635 5637 5642 5636 5628 5629 5630 5625 5620 5625 5615 5617 5639 5671 5663 5652 5643 5643 5644 5642 5639 5638 5639 5639 5640 5639 5636 5633 5628 5621 5615 5609 5603 5596 5589 5582 5574 5566 5561 5553 5543 5535 5526
5624 5625 5625 5633 5626 5616 5615 5616 5613 5615 5612 5614 5610 5634 5659 5652 5646 5641 5633 5628 5626 5624 5623 5624 5625 5625 5624 5622 5619 5616 5610 5603 5597 5590 5583 5578 5572 5565 5560 5554 5546 5537 5528 5520
5620 5620 5620 5620 5629 5628 5616 5611 5604 5601 5605 5612 5620 5631 5647 5644 5636 5629 5620 5615 5612 5610 5608 5608 5609 5610 5609 5607 5605 5603 5599 5592 5585 5578 5572 5568 5563 5557 5552 5545 5537 5529 5520 5511
5608 5612 5617 5619 5620 5614 5608 5609 5609 5602 5606 5605 5621 5623 5631 5627 5617 5610 5605 5601 5597 5596 5594 5593 5593 5593 5594 5593 5592 5589 5586 5581 5574 5567 5562 5558 5553 5547 5540 5534 5527 5519 5510 5502
5599 5601 5601 5604 5607 5604 5602 5609 5609 5608 5608 5608 5611 5613 5619 5608 5601 5596 5593 5588 5584 5582 5581 5580 5580 5579 5579 5579 5578 5576 5574 5570 5563 5557 5552 5547 5541 5535 5529 5523 5517 5511 5503 5494
5594 5592 5591 5599 5602 5592 5600 5616 5613 5610 5612 5607 5604 5609 5600 5592 5586 5582 5580 5577 5573 5571 5569 5568 5568 5567 5567 5566 5564 5562 5561 5558 5553 5548 5543 5536 5530 5525 5520 5515 5509 5503 5496 5488
5593 5584 5582 5586 5581 5580 5616 5617 5609 5605 5607 5606 5600 5593 5585 5578 5575 5574 5573 5568 5564 5562 5560 5559 5558 5557 5555 5554 5552 5549 5547 5545 5542 5538 5533 5527 5520 5514 5510 5506 5502 5496 5489 5481
5582 5578 5575 5570 5574 5591 5607 5606 5598 5592 5596 5596 5587 5579 5574 5570 5570 5572 5567 5559 5553 5551 5549 5548 5547 5545 5544 5542 5540 5536 5535 5535 5531 5529 5525 5519 5512 5506 5502 5498 5494 5489 5482 5474
5566 5569 5569 5563 5556 5574 5604 5593 5585 5581 5584 5583 5575 5570 5566 5563 5559 5562 5556 5551 5547 5544 5541 5538 5535 5532 5531 5530 5527 5524 5525 5524 5522 5518 5514 5510 5505 5500 5496 5493 5488 5482 5475 5467
5564 5560 5559 5559 5558 5582 5594 5580 5573 5570 5578 5570 5567 5563 5558 5552 5549 5550 5546 5542 5539 5536 5532 5527 5523 5521 5520 5517 5514 5513 5513 5513 5510 5506 5503 5499 5496 5492 5488 5483 5479 5473 5466 5458
5571 5568 5562 5559 5558 5570 5583 5569 5569 5573 5569 5563 5559 5554 5550 5546 5543 5540 5537 5533 5528 5524 5520 5515 5511 5509 5508 5506 5503 5502 5502 5501 5497 5494 5491 5489 5486 5483 5477 5473 5468 5462 5455 5447
5564 5570 5571 5566 5574 5583 5570 5567 5566 5560 5556 5554 5548 5544 5539 5537 5535 5531 5527 5522 5517 5512 5508 5503 5499 5497 5497 5495 5492 5491 5491 5488 5485 5483 5481 5479 5476 5472 5467 5462 5458 5451 5443 5436
5561 5558 5556 5560 5572 5568 5563 5559 5555 5550 5545 5541 5536 5532 5528 5525 5523 5517 5512 5507 5503 5500 5495 5491 5488 5487 5487 5485 5482 5480 5479 5476 5474 5473 5471 5469 5466 5463 5458 5452 5445 5439 5433 5426
5551 5549 5548 5553 5559 5556 5554 5547 5542 5537 5532 5529 5525 5520 5515 5510 5505 5500 5495 5493 5490 5486 5482 5478 5475 5475 5475 5474 5472 5469 5468 5466 5464 5462 5460 5458 5454 5452 5448 5442 5436 5430 5425 5417
5543 5540 5539 5548 5549 5544 5543 5535 5528 5523 5519 5514 5509 5504 5499 5492 5487 5483 5481 5479 5476 5473 5470 5467 5465 5465 5465 5463 5462 5460 5457 5454 5452 5450 5449 5447 5444 5440 5436 5433 5429 5423 5414 5408